Location: Unspecified
(34.4950°S, 58.5160°W)
Time: 20:25:33
(UTC+00:00)

SEDSat Delta rocket - Pass Details

Date: 04 December 2021
Orbit: 532 x 999 km, 31.4° (Epoch: 28 January)

Event Time Altitude Azimuth Distance (km) Brightness Sun altitude
Rises 23:33:00 0° 308° (NW) 2,924 6.8 -7.6°
Reaches altitude 10° 23:35:23 10° 318° (NW) 2,088 5.9 -8.0°
Maximum altitude 23:39:48 34° 22° (NNE) 1,193 4.1 -8.7°
Drops below altitude 10° 23:44:50 10° 85° (E) 2,386 5.5 -9.6°
Enters shadow 23:45:49 - 89° (E) 2,725 5.9 -9.7°
